TimeCET,TemperatureF,Dew PointF,Humidity,Sea Level PressureIn,VisibilityMPH,Wind Direction,Wind SpeedMPH,Gust SpeedMPH,PrecipitationIn,Events,Conditions,WindDirDegrees,DateUTC
12:45 AM,28.4,21.2,74,29.86,-9999.0,NNW,5.8,-,N/A,,Clear,340,2013-02-08 23:45:00
1:00 AM,28,21,66,29.89,31,NNW,6.7,,,,Partly Cloudy,340,2013-02-09 00:00:00
1:45 AM,28.4,21.2,74,29.86,-9999.0,North,8.1,-,N/A,,Clear,360,2013-02-09 00:45:00
2:45 AM,26.6,21.2,80,29.86,-9999.0,North,8.1,-,N/A,,Clear,350,2013-02-09 01:45:00
3:45 AM,28.4,23.0,80,29.83,-9999.0,NNE,10.4,-,N/A,,Clear,20,2013-02-09 02:45:00
4:45 AM,28.4,24.8,86,29.86,-9999.0,North,5.8,-,N/A,,Clear,10,2013-02-09 03:45:00
5:15 AM,28.4,23.0,80,29.86,-9999.0,NNE,6.9,-,N/A,,Clear,20,2013-02-09 04:15:00
5:45 AM,28.4,24.8,86,29.86,-9999.0,North,8.1,-,N/A,,Clear,10,2013-02-09 04:45:00
6:00 AM,-9999,-9999,N/A,-9999,-9999.0,North,8.1,-,N/A,,Overcast,10,2013-02-09 05:00:00
6:15 AM,28.4,24.8,86,29.86,-9999.0,NNE,6.9,-,N/A,,Clear,20,2013-02-09 05:15:00
6:45 AM,28.4,23.0,80,29.86,-9999.0,North,5.8,-,N/A,,Clear,10,2013-02-09 05:45:00
7:00 AM,29,24,73,29.90,9,North,6.7,,,,Partly Cloudy,10,2013-02-09 06:00:00
7:15 AM,28.4,24.8,86,29.86,-9999.0,NNE,5.8,-,N/A,,Clear,30,2013-02-09 06:15:00
7:45 AM,28.4,24.8,86,29.89,-9999.0,NNE,5.8,-,N/A,,Clear,30,2013-02-09 06:45:00
8:15 AM,28.4,23.0,80,29.89,-9999.0,NNE,3.5,-,N/A,,Clear,20,2013-02-09 07:15:00
8:45 AM,30.2,24.8,80,29.89,-9999.0,NNE,5.8,-,N/A,,Clear,30,2013-02-09 07:45:00
9:00 AM,-9999,-9999,N/A,-9999,4.3,NNE,6.9,-,N/A,,Unknown,20,2013-02-09 08:00:00
9:15 AM,30.2,24.8,80,29.89,-9999.0,NE,5.8,-,N/A,,Clear,40,2013-02-09 08:15:00
9:45 AM,30.2,24.8,80,29.89,-9999.0,NE,8.1,-,N/A,,Clear,40,2013-02-09 08:45:00
10:15 AM,30.2,23.0,75,29.89,-9999.0,NE,5.8,-,N/A,,Clear,50,2013-02-09 09:15:00
10:45 AM,30.2,23.0,75,29.89,-9999.0,ENE,5.8,-,N/A,,Clear,60,2013-02-09 09:45:00
11:15 AM,30.2,23.0,75,29.89,-9999.0,ENE,5.8,-,N/A,,Clear,60,2013-02-09 10:15:00
11:29 AM,30.2,23.0,75,29.95,2.5,East,5.8,-,N/A,Snow,Snow Grains,80,2013-02-09 10:29:00
11:45 AM,30.2,24.8,80,29.92,2.2,East,4.6,-,N/A,Snow,Snow Grains,90,2013-02-09 10:45:00
11:52 AM,30.2,24.8,80,29.92,-9999.0,North,-9999.0,-,N/A,,Unknown,0,2013-02-09 10:52:00
12:00 PM,-9999,-9999,N/A,-9999,3.7,NE,6.9,-,N/A,,Unknown,40,2013-02-09 11:00:00
12:15 PM,30.2,26.6,86,29.89,2.2,ENE,4.6,-,N/A,Snow,Snow Grains,60,2013-02-09 11:15:00
12:32 PM,30.2,26.6,86,29.95,3.1,ENE,3.5,-,N/A,Snow,Snow Grains,60,2013-02-09 11:32:00
12:45 PM,30.2,26.6,86,29.89,6.2,ENE,3.5,-,N/A,Snow,Snow Grains,70,2013-02-09 11:45:00
1:00 PM,30,26,78,29.94,6,ENE,4.5,,,Snow,Snow Grains,70,2013-02-09 12:00:00
1:15 PM,30.2,26.6,86,29.89,6.2,ENE,2.3,-,N/A,,Overcast,60,2013-02-09 12:15:00
1:45 PM,30.2,26.6,86,29.89,6.2,ENE,2.3,-,N/A,Snow,Light Snow,60,2013-02-09 12:45:00
2:15 PM,32.0,26.6,80,29.89,6.2,East,2.3,-,N/A,,Mostly Cloudy,80,2013-02-09 13:15:00
2:45 PM,32.0,24.8,75,29.89,6.2,ENE,3.5,-,N/A,,Mostly Cloudy,70,2013-02-09 13:45:00
3:15 PM,32.0,24.8,75,29.92,6.2,East,3.5,-,N/A,,Mostly Cloudy,90,2013-02-09 14:15:00
3:45 PM,30.2,26.6,86,29.92,6.2,North,2.3,-,N/A,,Overcast,360,2013-02-09 14:45:00
4:15 PM,30.2,26.6,86,29.92,6.2,NNW,3.5,-,N/A,,Mostly Cloudy,330,2013-02-09 15:15:00
4:45 PM,30.2,26.6,86,29.92,6.2,NW,3.5,-,N/A,,Mostly Cloudy,320,2013-02-09 15:45:00
5:11 PM,30.2,26.6,86,29.98,5.0,NNW,3.5,-,N/A,,Mostly Cloudy,330,2013-02-09 16:11:00
5:15 PM,30.2,26.6,86,29.92,5.0,NNW,3.5,-,N/A,,Mostly Cloudy,330,2013-02-09 16:15:00
5:45 PM,30.2,26.6,86,29.92,5.0,NW,1.2,-,N/A,Snow,Light Snow,320,2013-02-09 16:45:00
6:15 PM,30.2,24.8,80,29.92,5.0,NNE,8.1,-,N/A,Snow,Light Snow,20,2013-02-09 17:15:00
6:45 PM,30.2,24.8,80,29.92,5.0,North,8.1,-,N/A,Snow,Light Snow,10,2013-02-09 17:45:00
7:00 PM,29,25,79,29.96,5,North,8.9,,,Snow,Light Snow,10,2013-02-09 18:00:00
7:15 PM,28.4,24.8,86,29.92,6.2,North,5.8,-,N/A,,Mostly Cloudy,360,2013-02-09 18:15:00
7:45 PM,28.4,24.8,86,29.92,6.2,North,5.8,-,N/A,,Mostly Cloudy,10,2013-02-09 18:45:00
8:15 PM,30.2,24.8,80,29.92,6.2,North,4.6,-,N/A,,Mostly Cloudy,10,2013-02-09 19:15:00
8:45 PM,30.2,24.8,80,29.92,6.2,NE,2.3,-,N/A,,Overcast,50,2013-02-09 19:45:00
9:45 PM,30.2,24.8,80,29.92,6.2,North,4.6,-,N/A,,Overcast,10,2013-02-09 20:45:00
10:45 PM,30.2,24.8,80,29.92,6.2,North,5.8,-,N/A,,Overcast,10,2013-02-09 21:45:00
11:45 PM,28.4,24.8,86,29.92,6.2,North,5.8,-,N/A,,Overcast,360,2013-02-09 22:45:00